This is the latest recevied weather packets stored in our database for station/object N3OZD-10. If no packets are shown the sender has not sent any weather packets the latest 10 day(s).
| Time | Temp. | Humidity | Pressure | Rain* | Wind** | Luminosity | Snow |
|---|---|---|---|---|---|---|---|
| 1778194040 | 15.56° C | 56% | 1008.1 hPa | 0 mm | - | - | - |
| 1778193740 | 15.56° C | 54% | 1008.2 hPa | 0 mm | - | - | - |
| 1778193440 | 15.56° C | 54% | 1008.1 hPa | 0 mm | - | - | - |
| 1778193141 | 15.56° C | 58% | 1008 hPa | 0 mm | - | - | - |
| 1778192840 | 15.56° C | 54% | 1008 hPa | 0 mm | - | - | - |
| 1778192240 | 15.56° C | 53% | 1008 hPa | 0 mm | - | - | - |
| 1778191940 | 16.11° C | 54% | 1008 hPa | 0 mm | - | - | - |
| 1778191641 | 16.67° C | 53% | 1008 hPa | 0 mm | - | - | - |
| 1778191340 | 16.11° C | 55% | 1008 hPa | 0 mm | - | - | - |
| 1778191040 | 16.67° C | 54% | 1007.7 hPa | 0 mm | - | - | - |
| 1778190740 | 16.67° C | 50% | 1007.9 hPa | 0 mm | - | - | - |
| 1778190440 | 17.22° C | 49% | 1008 hPa | 0 mm | - | - | - |
| 1778190140 | 17.22° C | 52% | 1008 hPa | 0 mm | - | - | - |
| 1778189841 | 17.22° C | 46% | 1007.9 hPa | 0 mm | - | - | - |
| 1778189542 | 17.22° C | 47% | 1008.1 hPa | 0 mm | - | - | - |
| 1778189241 | 17.22° C | 47% | 1008 hPa | 0 mm | - | - | - |
| 1778188940 | 17.22° C | 46% | 1008.1 hPa | 0 mm | - | - | - |
| 1778188640 | 17.78° C | 46% | 1008.1 hPa | 0 mm | - | - | - |
| 1778188341 | 17.78° C | 38% | 1008.3 hPa | 0 mm | - | - | - |
| 1778188042 | 17.78° C | 38% | 1008.3 hPa | 0 mm | - | - | - |
| 1778187443 | 17.78° C | 38% | 1008.2 hPa | 0 mm | - | - | - |
| 1778187140 | 17.78° C | 38% | 1008.2 hPa | 0 mm | - | - | - |
| 1778186540 | 17.78° C | 40% | 1008.2 hPa | 0 mm | - | - | - |
| 1778186240 | 17.78° C | 41% | 1008.1 hPa | 0 mm | - | - | - |
| 1778185942 | 17.78° C | 38% | 1008.1 hPa | 0 mm | - | - | - |
* Rain latest hour (hover to see other rain measurements)
** Current wind speed in m/s (hover to see current wind gust speed)